Weather Roundup
Issued by NWS

Home | Current Version | Previous Version | Text Only | Print | Product List | Glossary On
Versions: 1 2 3 4 5 6 7 8 9 10 11 12 13 14 15 16 17 18 19 20 21 22 23 24 25 26 27 28 29 30 31 32 33 34 35 36 37 38 39 40 41 42 43 44 45 46 47 48 49 50
620
NZUS93 KARX 250510
HRRWXR

CURRENT HOURLY OBSERVATIONS ACROSS
MUCH OF THE UPPER MISSISSIPPI VALLEY
NATIONAL WEATHER SERVICE LA CROSSE WI
1200 AM CDT MON JUL 25 2016


...SOUTHEAST MINNESOTA...


CITY           SKY/WX    TMP DP  RH WIND       PRES   REMARKS
ROCHESTER      CLEAR     66  64  93 W8        30.01S
ROCHESTER/MAYO FAIR      70  64  83 W8        30.01R
WINONA         CLEAR     73  64  73 W7        29.97S
AUSTIN         CLEAR     68  63  83 W5        30.02S
ALBERT LEA     CLEAR     66  64  94 W3        30.03S
DODGE CENTER   CLEAR     64  63  94 W7        30.02S
PRESTON        CLEAR     66  62  86 W8        30.01S
OWATONNA       CLEAR     66  63  88 CALM      30.02R
FARIBAULT      CLEAR     66  64  94 SW6       30.01S
$$

...ELSEWHERE IN MINNESOTA...


CITY           SKY/WX    TMP DP  RH WIND       PRES   REMARKS
MINNEAPOLIS    CLEAR     74  62  66 W7        29.97S
INTNL FALLS    CLEAR     62  58  86 W6        29.90R
DULUTH         CLEAR     67  61  81 W9        29.91R
RED WING       CLEAR     66  64  94 CALM      29.96R
REDWOOD FALLS  CLEAR     68  62  81 W7        30.02S
MANKATO        CLEAR     66  61  82 W5        30.02R
WORTHINGTON    CLEAR     64  61  90 W6        30.08F
FAIRMONT       CLEAR     66  63  88 W6        30.03S
$$

...SOUTHWEST WISCONSIN...


CITY           SKY/WX    TMP DP  RH WIND       PRES   REMARKS
LA CROSSE      PTCLDY    73  66  78 NW6       29.94S
PRAIRIE DU CHI CLEAR     71  64  78 CALM      29.97R
BOSCOBEL       CLEAR     69  67  93 CALM      29.96R
LONE ROCK      PTCLDY    70  67  90 W6        29.95R
PLATTEVILLE    PTCLDY    69  69  99 W6        29.99R
FORT MC COY    CLEAR     66  64  91 CALM      29.96R
CAMP DOUGLAS   PTCLDY    64  62  96 W7        29.94R
MAUSTON-NEW LI CLEAR     68  65  90 W3        29.94R
VIROQUA        FAIR      68  66  93 W5        29.98R
WIS DELLS      PTCLDY    70  63  79 W3        29.95R
$$

...ELSEWHERE IN WISCONSIN...


CITY           SKY/WX    TMP DP  RH WIND       PRES   REMARKS
MILWAUKEE      CLOUDY    82  67  60 NW7       29.90R
MADISON        CLOUDY    75  66  73 NW5       29.93R
GREEN BAY      CLEAR     72  68  87 W8        29.87R
EAU CLAIRE     CLEAR     68  64  87 W7        29.94S
BLACK RVR FLS  FAIR      64  64 100 W3        29.94S
MEDFORD        CLEAR     65  65 100 W5        29.95S
WAUSAU         CLEAR     69  62  78 NW8       29.91R
WIS RAPIDS     CLEAR     68  62  81 NW6       29.94S
MARSHFIELD     CLOUDY    68  62  81 W6        29.94R
RICE LAKE      CLEAR     66  61  82 W3        29.96S
$$

...NORTHEAST IOWA...


CITY           SKY/WX    TMP DP  RH WIND       PRES   REMARKS
WATERLOO       MOCLDY    69  65  86 CALM      29.99R
DUBUQUE        PTCLDY    72  65  78 NW13      29.99R
DECORAH        CLOUDY    70  66  88 NW8       29.98S
MASON CITY     CLEAR     66  63  90 W7        30.05S
CHARLES CITY   CLOUDY    68  66  94 NW8       30.02S
OELWEIN        CLOUDY    68  66  94 NW9       30.00R
$$

...ELSEWHERE IN IOWA...


CITY           SKY/WX    TMP DP  RH WIND       PRES   REMARKS
DES MOINES     CLEAR     75  65  70 N5        30.01S
IOWA CITY      PTCLDY    76  66  71 N14       29.99R
FORT DODGE     CLEAR     68  64  88 MISG      30.05F
MARSHALLTOWN   CLEAR     69  65  86 NW9       30.00S
CEDAR RAPIDS   PTCLDY    68  68 100 NW6       29.99R
$$

...NORTHERN ILLINOIS...


CITY           SKY/WX    TMP DP  RH WIND       PRES   REMARKS
CHICAGO-OHARE  CLOUDY    76  68  76 SW8       29.92R
CHICAGO-MIDWAY CLOUDY    76  67  73 S15       29.93R
MOLINE         CLOUDY    79  66  64 N7        29.95R
ROCKFORD       CLOUDY    77  68  73 NW3       29.94R
PEORIA         LGT RAIN  79  76  90 S12       29.95R
$$

NOTE: "FAIR" INDICATES FEW OR NO CLOUDS BELOW 12,000 FEET WITH NO
SIGNIFICANT WEATHER AND/OR OBSTRUCTIONS TO VISIBILITY. WIND
SPEEDS ARE IN MILES-PER-HOUR.




USA.gov is the U.S. government's official web portal to all federal, state and local government web resources and services.